Change the Weather History Date:

Friday, June 27, 2014

  Actual Average Record
Temperature  
Mean Temperature 77 °F 79 °F  
Max Temperature 84 °F 90 °F 105 °F (1954)
Min Temperature 69 °F 68 °F 53 °F (1958)
Degree Days  
Heating Degree Days 0 0  
Month to date heating degree days 0 0  
Since 1 June heating degree days 0 0  
Since 1 July heating degree days 4147 3572  
Cooling Degree Days 12 14  
Month to date cooling degree days 324 298  
Year to date cooling degree days 574 513  
Since 1 June cooling degree days 324 298  
Growing Degree Days 27 (Base 50)    
Moisture  
Dew Point 70 °F    
Average Humidity 79    
Maximum Humidity 93    
Minimum Humidity 65    
Precipitation  
Precipitation 0.08 in 0.13 in 2.39 in (1960)
Month to date precipitation 10.26 4.40  
Year to date precipitation 32.27 27.94  
Snow  
Snow 0.00 in 0.00 in - ()
Month to date snowfall 0.0 0.0  
Since 1 June snowfall 0.0 0.0  
Since 1 July snowfall 1.3 4.6  
Snow Depth 0.00 in    
Sea Level Pressure  
Sea Level Pressure 30.03 in    
Wind  
Wind Speed 6 mph (SSW)    
Max Wind Speed 15 mph    
Max Gust Speed 20 mph    
Visibility 10 miles    
Events Rain    
T = Trace of Precipitation, MM = Missing Value Source: NWS Daily Summary

Daily Weather History Graph

Daily Weather History Graph

Search for Another Location

Airport or City:

Trip Planner

Search our weather history database for the weather conditions in past years. The results will help you decide how hot, cold, wet, or windy it might be!

Date:

Astronomy

Jun. 27, 2014 Rise Set
Actual Time 5:42 AM CDT 8:15 PM CDT
Civil Twilight 5:12 AM CDT 8:45 PM CDT
Nautical Twilight 4:34 AM CDT 9:22 PM CDT
Astronomical Twilight 3:53 AM CDT 10:03 PM CDT
Moon 6:09 AM CDT (6/27) 8:24 PM CDT (6/27)
Length of Visible Light 15h 33m
Length of Day
14h 33m
New Moon, 0% of the Moon is Illuminated
Jun 27
New Moon
Jul 5
First Quarter
Jul 12
Full
Jul 18
Last Quarter
Jul 26
New

Hourly Weather History & Observations

Time (CDT) Temp. Heat Index Dew Point Humidity Pressure Visibility Wind Dir Wind Speed Gust Speed Precip Events Conditions
12:53 AM 70.0 °F - 66.9 °F 90% 30.01 in 10.0 mi Calm Calm - N/A   Clear
1:53 AM 72.0 °F - 68.0 °F 87% 30.00 in 10.0 mi South 3.5 mph - N/A   Clear
2:53 AM 70.0 °F - 66.9 °F 90% 29.99 in 10.0 mi Calm Calm - N/A   Clear
3:53 AM 71.1 °F - 68.0 °F 90% 30.00 in 10.0 mi Calm Calm - N/A   Overcast
4:53 AM 72.0 °F - 69.1 °F 91% 30.00 in 10.0 mi Calm Calm - 0.00 in Rain Light Rain
5:53 AM 71.1 °F - 69.1 °F 93% 30.00 in 10.0 mi Calm Calm - 0.01 in   Scattered Clouds
6:53 AM 71.1 °F - 69.1 °F 93% 30.02 in 10.0 mi South 4.6 mph - N/A   Clear
7:53 AM 73.9 °F - 70.0 °F 87% 30.04 in 10.0 mi South 6.9 mph - N/A   Overcast
8:53 AM 75.9 °F - 71.1 °F 85% 30.06 in 10.0 mi South 6.9 mph - N/A   Mostly Cloudy
9:53 AM 79.0 °F - 72.0 °F 79% 30.06 in 10.0 mi South 6.9 mph - 0.01 in   Scattered Clouds
10:11 AM 80.6 °F 84.6 °F 71.6 °F 74% 30.07 in 10.0 mi SW 8.1 mph - N/A   Mostly Cloudy
10:28 AM 75.2 °F - 71.6 °F 89% 30.08 in 1.8 mi WSW 9.2 mph - 0.06 in Rain Heavy Rain
10:34 AM 75.2 °F - 71.6 °F 89% 30.07 in 3.0 mi SW 5.8 mph - 0.06 in Rain Light Rain
10:53 AM 79.0 °F - 73.9 °F 84% 30.06 in 10.0 mi SSW 10.4 mph - 0.06 in   Overcast
11:01 AM 78.8 °F - 71.6 °F 78% 30.07 in 10.0 mi SSW 11.5 mph - N/A   Mostly Cloudy
11:10 AM 78.8 °F - 71.6 °F 78% 30.06 in 10.0 mi SW 11.5 mph - N/A   Scattered Clouds
11:34 AM 80.6 °F 84.6 °F 71.6 °F 74% 30.07 in 10.0 mi South 8.1 mph - N/A   Mostly Cloudy
11:53 AM 82.0 °F 86.7 °F 72.0 °F 71% 30.05 in 10.0 mi SSW 9.2 mph - N/A   Mostly Cloudy
12:53 PM 82.0 °F 85.9 °F 70.0 °F 67% 30.04 in 10.0 mi SSW 12.7 mph - N/A   Mostly Cloudy
1:49 PM 82.4 °F 87.2 °F 71.6 °F 70% 30.04 in 10.0 mi WSW 10.4 mph - N/A   Mostly Cloudy
1:53 PM 84.0 °F 89.0 °F 71.1 °F 65% 30.02 in 10.0 mi SW 9.2 mph - N/A   Mostly Cloudy
2:53 PM 82.9 °F 86.5 °F 69.1 °F 63% 30.02 in 10.0 mi SSW 12.7 mph 19.6 mph N/A   Partly Cloudy
3:53 PM 82.0 °F 85.5 °F 69.1 °F 65% 30.01 in 10.0 mi SW 12.7 mph - N/A   Clear
4:53 PM 80.1 °F 82.7 °F 68.0 °F 67% 30.02 in 10.0 mi SW 11.5 mph - N/A   Clear
5:53 PM 80.1 °F 82.7 °F 68.0 °F 67% 30.01 in 10.0 mi SW 8.1 mph - N/A   Partly Cloudy
6:53 PM 79.0 °F - 69.1 °F 72% 30.01 in 10.0 mi SW 5.8 mph - N/A   Clear
7:53 PM 78.1 °F - 68.0 °F 71% 30.02 in 10.0 mi SSW 6.9 mph - N/A   Clear
8:53 PM 75.0 °F - 69.1 °F 82% 30.02 in 10.0 mi SSW 4.6 mph - N/A   Clear
9:53 PM 73.9 °F - 68.0 °F 82% 30.03 in 10.0 mi South 6.9 mph - N/A   Clear
10:53 PM 73.9 °F - 68.0 °F 82% 30.04 in 10.0 mi South 5.8 mph - N/A   Clear
11:53 PM 73.0 °F - 68.0 °F 84% 30.04 in 10.0 mi South 4.6 mph - N/A   Clear